Weather in Nursola

Russia / Mari El Republic     56°47′05″N   48°50′00″E
temp.,
°C
wind,
m/s
gust,
m/s
humid.,
%
clouds,
%
prec.,
mm/h
press.,
hPa
HPBL,
m
27 february, sat
sat2700:00−14se81494100 5.2 1001639
03:00−14ese61195100 7.3 1000516
06:00−14ese61094100 0.9 998427
09:00−13e61093100 1.4 999460
12:00−11ene6991100 0.4 1000602
15:00−12ne6991100 0.6 1002608
18:00−13nne51092100 0.1 1004487
21:00−16nne51096100 0.2 1006229
28 february, sun
sun2800:00−18n499897 0.0 1007173
03:00−20n499970 0.1 1009169
06:00−21n499958 0.0 1010153
09:00−19nne479556 0.0 1011234
12:00−17n469367 0.0 1012332
15:00−16n589381 0.0 1013431
18:00−19n349998 0.0 101564
21:00−21n349762 0.0 101736
1 march, mon
mon100:00−22n33980 0.0 101928
03:00−23nne23980 0.0 102020
06:00−23n23990 0.0 102220
09:00−19n12940 0.0 1023102
12:00−14wnw218619 0.0 1022273
15:00−13w349046 0.0 1022307
18:00−16sw239839 0.0 102022
21:00−17ssw479964 0.0 1019118
2 march, tue
tue200:00−17ssw5109991 0.0 1015201
03:00−15ssw6119796 0.1 1011253
06:00−12ssw61294100 0.8 1007394
09:00−9ssw61194100 1.3 1003422
12:00−5s61096100 0.9 1001434
15:00−2s5897100 2.1 999417
18:00−1ssw2399100 1.3 998102
21:00−1n61098100 3.0 999577
3 march, wed
wed300:00−6n5996100 0.4 1000245
03:00−9nnw4798100 0.5 1001128
06:00−10n489791 0.1 1002148
09:00−6nnw589490 0.2 1004353
12:00−4nnw599494 0.1 1005572
15:00−4nnw7109197 0.4 1006792
18:00−8nnw51189100 0.1 1008338
21:00−11nw479464 0.1 100992